Regional Weather Roundup
Issued by NWS

Home | Current Version | Previous Version | Text Only | Print | Product List | Glossary On
Versions: 1 2 3 4 5 6 7 8 9 10 11 12 13 14 15 16 17 18 19 20 21 22 23 24 25 26 27 28 29 30 31 32 33 34 35 36 37 38 39 40 41 42 43 44 45 46 47 48 49 50
000
ASUS45 KABQ 270310
RWRNM
NEW MEXICO REGIONAL WEATHER ROUNDUP
NATIONAL WEATHER SERVICE ALBUQUERQUE NM
900 PM MDT THU APR 26 2018

NOTE: "FAIR" MEANS FEW OR NO CLOUDS BELOW 12,000 FEET AGL WITH NO
       SIGNIFICANT WEATHER OR OBSTRUCTIONS TO VISION.

      THIS PRODUCT IS RELEASED AS TWO VERSIONS.  ONE VERSION NEAR
      THE TOP OF THE HOUR CONTAINING PRELIMINARY DATA FROM ALBUQUERQUE
      AND OTHER STATIONS.  A FINAL VERSION WITH ADDITIONAL DATA IS
      ISSUED ABOUT 10 MINUTES AFTER THE HOUR.

NMZ501-503-504-510>518-270400-
NORTHWEST PLATEAU/NORTHCENTRAL MOUNTAINS

CITY           SKY/WX    TMP DP  RH WIND       PRES   REMARKS
FARMINGTON     FAIR      63   3   9 W9        30.04R
LOS ALAMOS     FAIR      56  22  26 S12G20    30.23R
SANTA FE       FAIR      56  26  31 SE18G29   30.18R
TAOS           FAIR      52  25  35 SE22G35   30.22R
ANGEL FIRE     FAIR      38  23  54 CALM      30.34R

$$
NMZ402-403-502-505>509-270400-
WESTCENTRAL MOUNTAINS/SOUTHWEST MOUNTAINS

CITY           SKY/WX    TMP DP  RH WIND       PRES   REMARKS
GALLUP         FAIR      61  -1   8 NE9       30.14R
GRANTS         FAIR      57   1  10 N5        30.15R
SILVER CITY    FAIR      66  16  14 CALM      30.07R

$$
NMZ407-409-411-412-270400-
SOUTHERN DESERTS

CITY           SKY/WX    TMP DP  RH WIND       PRES   REMARKS
DEMING         FAIR      73  26  17 CALM      29.99R
LAS CRUCES     FAIR      75  23  14 S8        30.03R
HOLLOMAN AFB   FAIR      72  22  15 NE16      30.03R
ALAMOGORDO     FAIR      73  19  13 E15G24    30.02R
T OR C         FAIR      77  21  12 CALM      30.01R

$$
NMZ519>523-270400-
CENTRAL VALLEYS/CENTRAL HIGHLANDS

CITY           SKY/WX    TMP DP  RH WIND       PRES   REMARKS
ALBUQUERQUE    FAIR      65  24  21 E31G40    30.11R
DOUBLE EAGLE   CLEAR     63  19  19 SE22      30.14R
MORIARTY ARPT  FAIR      58  26  28 E17G24    30.25R
CLINES CORNERS FAIR      50  24  36 E20G26    30.29R
BELEN          FAIR      66  18  16 SE20G25   30.11R
SOCORRO        FAIR      67  18  15 E14G30    30.10R

$$
NMZ524>526-539-540-270400-
SOUTHCENTRAL MOUNTAINS

CITY           SKY/WX    TMP DP  RH WIND       PRES   REMARKS
RUIDOSO        FAIR      54  19  26 E13       30.31R

$$
NMZ527>531-270400-
NORTHEAST HIGHLANDS/NORTHEAST PLAINS

CITY           SKY/WX    TMP DP  RH WIND       PRES   REMARKS
LAS VEGAS      FAIR      42  23  46 E8        30.31R
RATON          FAIR      45  21  38 NE9       30.29R
CLAYTON        FAIR      43  24  47 N8        30.25R

$$
NMZ532>537-270400-
EASTCENTRAL PLAINS

CITY           SKY/WX    TMP DP  RH WIND       PRES   REMARKS
SANTA ROSA     FAIR      57  24  27 NE14G20   30.22R
TUCUMCARI      FAIR      56  27  32 NE14      30.21R
CANNON AFB     FAIR      56  26  31 NE16      30.22R
CLOVIS AIRPORT FAIR      54  28  36 NE15      30.22R

$$
NMZ028-029-538-270400-
SOUTHEAST PLAINS

CITY           SKY/WX    TMP DP  RH WIND       PRES   REMARKS
ROSWELL        FAIR      64  29  26 NE10      30.15R
ARTESIA        FAIR      68  27  21 NE13      30.15R
CARLSBAD       FAIR      69  27  20 NE17G29   30.10R
HOBBS          MOCLDY    64  25  22 NE22G32   30.13R


$$




USA.gov is the U.S. government's official web portal to all federal, state and local government web resources and services.